Showing default

EOS-6, 54361

Orbit data source: Space-Track

EOS-6, 54361 is a payload satellite owned by ISRO (IN) in SSO that was launched on Sat, 26 Nov 2022 UTC via a PSLV-XL launch vehicle from the Sirharikota (SRI). Payload-class satellites include a variety of spacecraft equipped with specific instruments for various scientific and technological missions. These include communications satellites like Starlink; space stations such as the ISS; scientific satellites like the Hubble; Earth observation satellites from companies like Planet Labs, Umbra, and HawkEye 360; GPS; miniature CubeSats for education and research; and military/defense satellites.

Loading next visibility...
Identifier
54361, 2022-158A
Orbit
SSO
Country
Flag of ININ / IND
Related business
Manufacturer
ISAC/HAL
Mission
Operational Civil Imaging
Bus & Motor
IRS, Unknown motor
Mass
1,117 kg wet, ~950 kg dry
Launch date (UTC)
2022-11-26 (3 years ago)
Launch vehicle
PSLV-XL
Launch site
Sirharikota (SRI)
Object type
Payload
Rocket body
Debris
Shape & HBR
Box + Hex Box + 3 Pan, 5.8 m
Radar Cross Section
17.625 m², Large (>1 m²)

Expand to show TLE details & history
Last TLE update: 9 hours ago

TLE from 9 hours ago
0 EOS-6
1 54361U 22158A   25347.01332041  .00000629  00000-0  18483-3 0  9996
2 54361  98.3549  82.7304 0001576 139.3483 220.7828 14.47033486160919
Epoch: 2025-12-13T00:19Z
TLE epoch observation values (Epoch: 2025-12-13T00:19:10.883Z)
Latitude
0.00004°
Longitude
-4.01164°
Altitude
739.166 km
Speed
7.485 km/s
True Right ascension
05h 30m 55s
True Declination
0° 00' 00"
Sunlit
Object was in full shadow at epoch
Visualization orbit readout
Latitude
Unknown
Longitude
Unknown
Altitude
Unknown
Speed
Unknown
Apparent Right ascension
Unknown
Apparent Declination
Unknown
Sunlit
N/A
Visualization observer readout
Local Sidereal Time
07:35:02
Azimuth
Unknown
Elevation
Unknown
Doppler factor
Unknown
Orbital elements
Apogee altitude
733.58 km
Perigee altitude
731.339 km
Semi-major axis
7,110.597 km
Eccentricity
0.00016
Inclination
98.3549°
RAAN
82.7304°
Arg. of periapsis
139.3483°
True anomaly
220.77101°
Mean anomaly
220.7828°
Eccentric anomaly
220.7769°
Mean motion
3.6198 °/min
Orbital period
99.45 mins
BSTAR
0.00018483
Loading maneuver chart data...
Computing Atmospheric mass density...
Loading historical data...
Loading historical data...
Loading historical data...
Loading historical data...
Loading historical data...
Loading historical data...
Loading historical data...

Documentation

Showing up to 5 results
|